Time,TemperatureF,DewpointF,PressureIn,WindDirection,WindDirectionDegrees,WindSpeedMPH,WindSpeedGustMPH,Humidity,HourlyPrecipIn,Conditions,Clouds,dailyrainin,SoftwareType,DateUTC
2013-07-26 00:01:00,81.7,65.5,-100.00,ENE,68,0.0,1.0,58,0.00,,,0.00,meteohub,2013-07-26 05:01:00,
2013-07-26 00:05:00,81.5,65.3,-100.00,ESE,113,0.0,1.0,58,0.00,,,0.00,meteohub,2013-07-26 05:05:00,
2013-07-26 00:07:00,81.5,65.3,-100.00,East,90,1.0,1.0,58,0.00,,,0.00,meteohub,2013-07-26 05:07:00,
2013-07-26 00:09:00,81.5,65.3,-100.00,East,90,1.0,1.0,58,0.00,,,0.00,meteohub,2013-07-26 05:09:00,
2013-07-26 00:11:00,81.5,65.3,-100.00,ESE,113,0.0,1.0,58,0.00,,,0.00,meteohub,2013-07-26 05:11:00,
2013-07-26 00:13:00,81.5,65.8,-100.00,ESE,113,0.0,1.0,59,0.00,,,0.00,meteohub,2013-07-26 05:13:00,
2013-07-26 00:15:00,81.3,65.7,-100.00,East,90,2.0,2.0,59,0.00,,,0.00,meteohub,2013-07-26 05:15:00,
2013-07-26 00:17:00,81.3,65.7,-100.00,ESE,113,0.0,1.0,59,0.00,,,0.00,meteohub,2013-07-26 05:17:00,
2013-07-26 00:19:00,81.3,65.7,-100.00,SE,135,0.0,1.0,59,0.00,,,0.00,meteohub,2013-07-26 05:19:00,
2013-07-26 00:23:00,81.1,65.5,-100.00,SW,225,3.0,3.0,59,0.00,,,0.00,meteohub,2013-07-26 05:23:00,
2013-07-26 00:25:00,81.1,66.0,-100.00,SSW,203,0.0,2.0,60,0.00,,,0.00,meteohub,2013-07-26 05:25:00,
2013-07-26 00:27:00,81.1,66.0,-100.00,SSW,203,2.0,3.0,60,0.00,,,0.00,meteohub,2013-07-26 05:27:00,
2013-07-26 00:29:00,81.1,66.4,-100.00,ESE,113,0.0,3.0,61,0.00,,,0.00,meteohub,2013-07-26 05:29:00,
2013-07-26 00:31:00,81.1,66.4,-100.00,NW,315,0.0,3.0,61,0.00,,,0.00,meteohub,2013-07-26 05:31:00,
2013-07-26 00:32:00,81.1,66.4,-100.00,NW,315,0.0,3.0,61,0.00,,,0.00,meteohub,2013-07-26 05:32:00,
2013-07-26 00:37:00,81.1,66.9,-100.00,South,180,0.0,3.0,62,0.00,,,0.00,meteohub,2013-07-26 05:37:00,
2013-07-26 00:39:00,81.1,66.9,-100.00,SSE,158,1.0,3.0,62,0.00,,,0.00,meteohub,2013-07-26 05:39:00,
2013-07-26 00:41:00,81.1,67.3,-100.00,SW,225,0.0,2.0,63,0.00,,,0.00,meteohub,2013-07-26 05:41:00,
2013-07-26 00:43:00,81.1,67.3,-100.00,SSE,158,0.0,2.0,63,0.00,,,0.00,meteohub,2013-07-26 05:43:00,
2013-07-26 00:45:00,81.1,67.3,-100.00,SSE,158,0.0,1.0,63,0.00,,,0.00,meteohub,2013-07-26 05:45:00,
2013-07-26 00:47:00,81.1,67.3,-100.00,SW,225,1.0,1.0,63,0.00,,,0.00,meteohub,2013-07-26 05:47:00,
2013-07-26 00:49:00,81.1,67.8,-100.00,East,90,0.0,1.0,64,0.00,,,0.00,meteohub,2013-07-26 05:49:00,
2013-07-26 00:51:00,81.1,67.8,-100.00,East,90,0.0,1.0,64,0.00,,,0.00,meteohub,2013-07-26 05:51:00,
2013-07-26 00:53:00,81.1,67.3,-100.00,SE,135,0.0,1.0,63,0.00,,,0.00,meteohub,2013-07-26 05:53:00,
2013-07-26 00:55:00,81.1,67.8,-100.00,SE,135,0.0,1.0,64,0.00,,,0.00,meteohub,2013-07-26 05:55:00,
2013-07-26 00:57:00,81.0,67.6,-100.00,ESE,113,0.0,1.0,64,0.00,,,0.00,meteohub,2013-07-26 05:57:00,
2013-07-26 00:59:00,81.0,67.6,-100.00,ESE,113,0.0,1.0,64,0.00,,,0.00,meteohub,2013-07-26 05:59:00,
2013-07-26 01:01:00,81.0,67.6,-100.00,ESE,113,0.0,1.0,64,0.00,,,0.00,meteohub,2013-07-26 06:01:00,
2013-07-26 01:02:00,81.0,67.6,-100.00,ESE,113,0.0,1.0,64,0.00,,,0.00,meteohub,2013-07-26 06:02:00,
2013-07-26 01:05:00,80.8,68.0,-100.00,SSE,158,0.0,1.0,65,0.00,,,0.00,meteohub,2013-07-26 06:05:00,
2013-07-26 01:09:00,80.8,68.4,-100.00,East,90,3.0,3.0,66,0.00,,,0.00,meteohub,2013-07-26 06:09:00,
2013-07-26 01:11:00,80.8,68.4,-100.00,SSW,203,2.0,4.0,66,0.00,,,0.00,meteohub,2013-07-26 06:11:00,
2013-07-26 01:17:00,80.6,68.2,-100.00,SSE,158,2.0,4.0,66,0.00,,,0.00,meteohub,2013-07-26 06:17:00,
2013-07-26 01:21:00,80.6,68.5,-100.00,SSE,158,1.0,4.0,67,0.00,,,0.00,meteohub,2013-07-26 06:21:00,
2013-07-26 01:23:00,80.4,68.5,-100.00,SW,225,2.0,4.0,67,0.00,,,0.00,meteohub,2013-07-26 06:23:00,
2013-07-26 01:25:00,80.4,68.5,-100.00,SE,135,0.0,3.0,67,0.00,,,0.00,meteohub,2013-07-26 06:25:00,
2013-07-26 01:27:00,80.4,68.5,-100.00,SSW,203,3.0,3.0,67,0.00,,,0.00,meteohub,2013-07-26 06:27:00,
2013-07-26 01:29:00,80.4,68.5,-100.00,SE,135,0.0,3.0,67,0.00,,,0.00,meteohub,2013-07-26 06:29:00,
2013-07-26 01:32:00,80.4,68.5,-100.00,West,270,0.0,3.0,67,0.00,,,0.00,meteohub,2013-07-26 06:32:00,
2013-07-26 01:38:00,80.2,68.4,-100.00,SSE,158,0.0,3.0,67,0.00,,,0.00,meteohub,2013-07-26 06:38:00,
2013-07-26 01:42:00,80.2,68.4,-100.00,SSE,158,2.0,3.0,67,0.00,,,0.00,meteohub,2013-07-26 06:42:00,
2013-07-26 01:44:00,80.1,68.2,-100.00,ENE,68,3.0,3.0,67,0.00,,,0.00,meteohub,2013-07-26 06:44:00,
2013-07-26 01:47:00,79.9,68.0,-100.00,SE,135,1.0,2.0,67,0.00,,,0.00,meteohub,2013-07-26 06:47:00,
2013-07-26 01:48:00,79.9,67.5,-100.00,NE,45,1.0,2.0,66,0.00,,,0.00,meteohub,2013-07-26 06:48:00,
2013-07-26 01:50:00,79.9,67.5,-100.00,SW,225,0.0,2.0,66,0.00,,,0.00,meteohub,2013-07-26 06:50:00,
2013-07-26 01:54:00,79.9,67.5,-100.00,SSW,203,2.0,3.0,66,0.00,,,0.00,meteohub,2013-07-26 06:54:00,
2013-07-26 01:56:00,79.9,67.5,-100.00,SSW,203,2.0,3.0,66,0.00,,,0.00,meteohub,2013-07-26 06:56:00,
2013-07-26 01:58:00,79.7,67.3,-100.00,SSW,203,0.0,3.0,66,0.00,,,0.00,meteohub,2013-07-26 06:58:00,
2013-07-26 02:02:00,79.7,67.3,-100.00,East,90,0.0,2.0,66,0.00,,,0.00,meteohub,2013-07-26 07:02:00,
2013-07-26 02:04:00,79.5,67.1,-100.00,South,180,0.0,2.0,66,0.00,,,0.00,meteohub,2013-07-26 07:04:00,
2013-07-26 02:08:00,79.5,67.1,-100.00,South,180,1.0,2.0,66,0.00,,,0.00,meteohub,2013-07-26 07:08:00,
2013-07-26 02:14:00,79.3,66.9,-100.00,SSW,203,0.0,2.0,66,0.00,,,0.00,meteohub,2013-07-26 07:14:00,
2013-07-26 02:16:00,79.3,66.9,-100.00,SE,135,0.0,1.0,66,0.00,,,0.00,meteohub,2013-07-26 07:16:00,
2013-07-26 02:17:00,79.3,66.9,-100.00,SE,135,0.0,1.0,66,0.00,,,0.00,meteohub,2013-07-26 07:17:00,
2013-07-26 02:22:00,79.2,66.7,-100.00,South,180,0.0,1.0,66,0.00,,,0.00,meteohub,2013-07-26 07:22:00,
2013-07-26 02:24:00,79.2,66.7,-100.00,SSE,158,0.0,1.0,66,0.00,,,0.00,meteohub,2013-07-26 07:24:00,
2013-07-26 02:28:00,79.0,66.6,-100.00,SSE,158,0.0,1.0,66,0.00,,,0.00,meteohub,2013-07-26 07:28:00,
2013-07-26 02:30:00,79.0,67.1,-100.00,SSE,158,1.0,0.0,67,0.00,,,0.00,meteohub,2013-07-26 07:30:00,
2013-07-26 02:32:00,79.0,67.1,-100.00,SSE,158,1.0,0.0,67,0.00,,,0.00,meteohub,2013-07-26 07:32:00,
2013-07-26 02:36:00,79.0,67.1,-100.00,SW,225,2.0,2.0,67,0.00,,,0.00,meteohub,2013-07-26 07:36:00,
2013-07-26 02:38:00,79.0,67.1,-100.00,SW,225,2.0,2.0,67,0.00,,,0.00,meteohub,2013-07-26 07:38:00,
2013-07-26 02:40:00,78.8,66.9,-100.00,ENE,68,0.0,2.0,67,0.00,,,0.00,meteohub,2013-07-26 07:40:00,
2013-07-26 02:42:00,78.6,66.7,-100.00,SSW,203,0.0,2.0,67,0.00,,,0.00,meteohub,2013-07-26 07:42:00,
2013-07-26 02:47:00,78.6,67.1,-100.00,SSW,203,0.0,2.0,68,0.00,,,0.00,meteohub,2013-07-26 07:47:00,
2013-07-26 02:53:00,78.4,67.5,-100.00,SSW,203,1.0,2.0,69,0.00,,,0.00,meteohub,2013-07-26 07:53:00,
2013-07-26 02:55:00,78.4,67.5,-100.00,SSW,203,2.0,2.0,69,0.00,,,0.00,meteohub,2013-07-26 07:55:00,
2013-07-26 02:57:00,78.4,67.5,-100.00,SSW,203,2.0,2.0,69,0.00,,,0.00,meteohub,2013-07-26 07:57:00,
2013-07-26 03:01:00,78.4,67.8,-100.00,SW,225,2.0,2.0,70,0.00,,,0.00,meteohub,2013-07-26 08:01:00,
2013-07-26 03:02:00,78.4,67.8,-100.00,SW,225,2.0,2.0,70,0.00,,,0.00,meteohub,2013-07-26 08:02:00,
2013-07-26 03:03:00,78.3,67.6,-100.00,SSW,203,0.0,2.0,70,0.00,,,0.00,meteohub,2013-07-26 08:03:00,
2013-07-26 03:07:00,78.1,67.5,-100.00,SSE,158,1.0,2.0,70,0.00,,,0.00,meteohub,2013-07-26 08:07:00,
2013-07-26 03:09:00,78.1,67.5,-100.00,SE,135,0.0,2.0,70,0.00,,,0.00,meteohub,2013-07-26 08:09:00,
2013-07-26 03:11:00,77.9,67.8,-100.00,SE,135,0.0,2.0,71,0.00,,,0.00,meteohub,2013-07-26 08:11:00,
2013-07-26 03:13:00,77.9,67.8,-100.00,SE,135,0.0,2.0,71,0.00,,,0.00,meteohub,2013-07-26 08:13:00,
2013-07-26 03:15:00,77.9,67.8,-100.00,ESE,113,0.0,2.0,71,0.00,,,0.00,meteohub,2013-07-26 08:15:00,
2013-07-26 03:17:00,77.9,67.8,-100.00,SSW,203,2.0,2.0,71,0.00,,,0.00,meteohub,2013-07-26 08:17:00,
2013-07-26 03:19:00,77.7,67.6,-100.00,SSW,203,0.0,2.0,71,0.00,,,0.00,meteohub,2013-07-26 08:19:00,
2013-07-26 03:23:00,77.7,67.6,-100.00,South,180,0.0,2.0,71,0.00,,,0.00,meteohub,2013-07-26 08:23:00,
2013-07-26 03:25:00,77.7,67.6,-100.00,SSW,203,5.0,5.0,71,0.00,,,0.00,meteohub,2013-07-26 08:25:00,
2013-07-26 03:27:00,77.7,68.0,-100.00,SW,225,6.0,6.0,72,0.00,,,0.00,meteohub,2013-07-26 08:27:00,
2013-07-26 03:29:00,77.5,67.8,-100.00,SW,225,6.0,6.0,72,0.00,,,0.00,meteohub,2013-07-26 08:29:00,
2013-07-26 03:31:00,77.5,67.8,-100.00,South,180,0.0,6.0,72,0.00,,,0.00,meteohub,2013-07-26 08:31:00,
2013-07-26 03:33:00,77.5,67.8,-100.00,South,180,0.0,6.0,72,0.00,,,0.00,meteohub,2013-07-26 08:33:00,
2013-07-26 03:35:00,77.5,67.8,-100.00,SSW,203,2.0,6.0,72,0.00,,,0.00,meteohub,2013-07-26 08:35:00,
2013-07-26 03:39:00,77.5,67.8,-100.00,SSE,158,0.0,6.0,72,0.00,,,0.00,meteohub,2013-07-26 08:39:00,
2013-07-26 03:41:00,77.5,67.8,-100.00,SSE,158,0.0,6.0,72,0.00,,,0.00,meteohub,2013-07-26 08:41:00,
2013-07-26 03:43:00,77.4,67.6,-100.00,SSW,203,1.0,6.0,72,0.00,,,0.00,meteohub,2013-07-26 08:43:00,
2013-07-26 03:45:00,77.4,68.0,-100.00,SSW,203,3.0,3.0,73,0.00,,,0.00,meteohub,2013-07-26 08:45:00,
2013-07-26 03:47:00,77.4,68.0,-100.00,SSW,203,3.0,3.0,73,0.00,,,0.00,meteohub,2013-07-26 08:47:00,
2013-07-26 03:51:00,77.2,67.8,-100.00,ENE,68,0.0,3.0,73,0.00,,,0.00,meteohub,2013-07-26 08:51:00,
2013-07-26 03:55:00,77.2,67.8,-100.00,SSW,203,0.0,3.0,73,0.00,,,0.00,meteohub,2013-07-26 08:55:00,
2013-07-26 03:57:00,77.2,67.8,-100.00,SSE,158,0.0,3.0,73,0.00,,,0.00,meteohub,2013-07-26 08:57:00,
2013-07-26 03:59:00,77.0,67.6,-100.00,SW,225,2.0,3.0,73,0.00,,,0.00,meteohub,2013-07-26 08:59:00,
2013-07-26 04:01:00,77.0,67.6,-100.00,SW,225,2.0,3.0,73,0.00,,,0.00,meteohub,2013-07-26 09:01:00,
2013-07-26 04:03:00,77.0,67.6,-100.00,SE,135,0.0,3.0,73,0.00,,,0.00,meteohub,2013-07-26 09:03:00,
2013-07-26 04:07:00,76.8,67.5,-100.00,SSE,158,0.0,2.0,73,0.00,,,0.00,meteohub,2013-07-26 09:07:00,
2013-07-26 04:09:00,76.8,67.5,-100.00,SSE,158,0.0,2.0,73,0.00,,,0.00,meteohub,2013-07-26 09:09:00,
2013-07-26 04:11:00,76.8,67.5,-100.00,SE,135,0.0,2.0,73,0.00,,,0.00,meteohub,2013-07-26 09:11:00,
2013-07-26 04:15:00,76.8,67.5,-100.00,South,180,0.0,2.0,73,0.00,,,0.00,meteohub,2013-07-26 09:15:00,
2013-07-26 04:17:00,76.8,67.5,-100.00,South,180,0.0,2.0,73,0.00,,,0.00,meteohub,2013-07-26 09:17:00,
2013-07-26 04:24:00,76.8,67.5,-100.00,ESE,113,0.0,0.0,73,0.00,,,0.00,meteohub,2013-07-26 09:24:00,
2013-07-26 04:26:00,76.8,67.5,-100.00,SSW,203,2.0,2.0,73,0.00,,,0.00,meteohub,2013-07-26 09:26:00,
2013-07-26 04:28:00,76.8,67.5,-100.00,SSW,203,0.0,2.0,73,0.00,,,0.00,meteohub,2013-07-26 09:28:00,
2013-07-26 04:30:00,76.8,67.1,-100.00,SSW,203,0.0,2.0,72,0.00,,,0.00,meteohub,2013-07-26 09:30:00,
2013-07-26 04:32:00,76.8,67.5,-100.00,South,180,0.0,2.0,73,0.00,,,0.00,meteohub,2013-07-26 09:32:00,
2013-07-26 04:36:00,76.6,67.3,-100.00,SSE,158,0.0,2.0,73,0.00,,,0.00,meteohub,2013-07-26 09:36:00,
2013-07-26 04:38:00,76.6,67.3,-100.00,South,180,0.0,2.0,73,0.00,,,0.00,meteohub,2013-07-26 09:38:00,
2013-07-26 04:40:00,76.6,67.3,-100.00,ESE,113,0.0,2.0,73,0.00,,,0.00,meteohub,2013-07-26 09:40:00,
2013-07-26 04:44:00,76.6,67.3,-100.00,SSW,203,0.0,2.0,73,0.00,,,0.00,meteohub,2013-07-26 09:44:00,
2013-07-26 04:47:00,76.5,67.1,-100.00,SSW,203,0.0,2.0,73,0.00,,,0.00,meteohub,2013-07-26 09:47:00,
2013-07-26 04:50:00,76.5,67.1,-100.00,South,180,0.0,2.0,73,0.00,,,0.00,meteohub,2013-07-26 09:50:00,
2013-07-26 04:52:00,76.5,67.1,-100.00,SW,225,0.0,2.0,73,0.00,,,0.00,meteohub,2013-07-26 09:52:00,
2013-07-26 04:58:00,76.3,66.9,-100.00,SW,225,0.0,2.0,73,0.00,,,0.00,meteohub,2013-07-26 09:58:00,
2013-07-26 05:02:00,76.3,66.9,-100.00,SW,225,0.0,0.0,73,0.00,,,0.00,meteohub,2013-07-26 10:02:00,
2013-07-26 05:04:00,76.3,66.9,-100.00,SW,225,0.0,0.0,73,0.00,,,0.00,meteohub,2013-07-26 10:04:00,
2013-07-26 05:08:00,76.3,66.9,-100.00,SW,225,0.0,0.0,73,0.00,,,0.00,meteohub,2013-07-26 10:08:00,
2013-07-26 05:10:00,76.1,66.7,-100.00,West,270,0.0,0.0,73,0.00,,,0.00,meteohub,2013-07-26 10:10:00,
2013-07-26 05:12:00,75.9,66.6,-100.00,West,270,0.0,0.0,73,0.00,,,0.00,meteohub,2013-07-26 10:12:00,
2013-07-26 05:14:00,75.9,66.6,-100.00,West,270,0.0,0.0,73,0.00,,,0.00,meteohub,2013-07-26 10:14:00,
2013-07-26 05:16:00,75.9,66.6,-100.00,West,270,0.0,0.0,73,0.00,,,0.00,meteohub,2013-07-26 10:16:00,
2013-07-26 05:18:00,75.9,66.6,-100.00,SW,225,0.0,0.0,73,0.00,,,0.00,meteohub,2013-07-26 10:18:00,
2013-07-26 05:22:00,75.9,66.6,-100.00,South,180,1.0,1.0,73,0.00,,,0.00,meteohub,2013-07-26 10:22:00,
2013-07-26 05:24:00,75.7,66.4,-100.00,South,180,0.0,1.0,73,0.00,,,0.00,meteohub,2013-07-26 10:24:00,
2013-07-26 05:26:00,75.7,66.4,-100.00,South,180,0.0,1.0,73,0.00,,,0.00,meteohub,2013-07-26 10:26:00,
2013-07-26 05:28:00,75.7,66.4,-100.00,South,180,0.0,1.0,73,0.00,,,0.00,meteohub,2013-07-26 10:28:00,
2013-07-26 05:32:00,75.7,66.4,-100.00,South,180,0.0,1.0,73,0.00,,,0.00,meteohub,2013-07-26 10:32:00,
2013-07-26 05:36:00,75.6,66.7,-100.00,South,180,0.0,1.0,74,0.00,,,0.00,meteohub,2013-07-26 10:36:00,
2013-07-26 05:38:00,75.6,66.7,-100.00,South,180,0.0,1.0,74,0.00,,,0.00,meteohub,2013-07-26 10:38:00,
2013-07-26 05:42:00,75.6,66.7,-100.00,South,180,0.0,0.0,74,0.00,,,0.00,meteohub,2013-07-26 10:42:00,
2013-07-26 05:44:00,75.4,66.6,-100.00,South,180,0.0,0.0,74,0.00,,,0.00,meteohub,2013-07-26 10:44:00,
2013-07-26 05:48:00,75.4,66.6,-100.00,South,180,0.0,0.0,74,0.00,,,0.00,meteohub,2013-07-26 10:48:00,
2013-07-26 05:50:00,75.4,66.6,-100.00,South,180,0.0,0.0,74,0.00,,,0.00,meteohub,2013-07-26 10:50:00,
2013-07-26 05:52:00,75.4,66.9,-100.00,South,180,0.0,0.0,75,0.00,,,0.00,meteohub,2013-07-26 10:52:00,
2013-07-26 05:54:00,75.2,66.7,-100.00,South,180,0.0,0.0,75,0.00,,,0.00,meteohub,2013-07-26 10:54:00,
2013-07-26 05:58:00,75.2,66.7,-100.00,South,180,0.0,0.0,75,0.00,,,0.00,meteohub,2013-07-26 10:58:00,
2013-07-26 06:02:00,75.0,66.6,-100.00,South,180,0.0,0.0,75,0.00,,,0.00,meteohub,2013-07-26 11:02:00,
2013-07-26 06:04:00,75.0,66.6,-100.00,South,180,0.0,0.0,75,0.00,,,0.00,meteohub,2013-07-26 11:04:00,
2013-07-26 06:07:00,75.0,66.6,-100.00,South,180,0.0,0.0,75,0.00,,,0.00,meteohub,2013-07-26 11:07:00,
2013-07-26 06:11:00,75.0,66.6,-100.00,South,180,0.0,0.0,75,0.00,,,0.00,meteohub,2013-07-26 11:11:00,
2013-07-26 06:13:00,75.0,66.6,-100.00,South,180,0.0,0.0,75,0.00,,,0.00,meteohub,2013-07-26 11:13:00,
2013-07-26 06:15:00,75.0,66.6,-100.00,South,180,0.0,0.0,75,0.00,,,0.00,meteohub,2013-07-26 11:15:00,
2013-07-26 06:17:00,74.8,66.4,-100.00,South,180,0.0,0.0,75,0.00,,,0.00,meteohub,2013-07-26 11:17:00,
2013-07-26 06:19:00,74.8,66.4,-100.00,South,180,0.0,0.0,75,0.00,,,0.00,meteohub,2013-07-26 11:19:00,
2013-07-26 06:23:00,74.8,66.4,-100.00,South,180,0.0,0.0,75,0.00,,,0.00,meteohub,2013-07-26 11:23:00,
2013-07-26 06:25:00,74.7,66.6,-100.00,South,180,0.0,0.0,76,0.00,,,0.00,meteohub,2013-07-26 11:25:00,
2013-07-26 06:27:00,74.5,66.4,-100.00,South,180,0.0,0.0,76,0.00,,,0.00,meteohub,2013-07-26 11:27:00,
2013-07-26 06:31:00,74.5,66.4,-100.00,South,180,0.0,0.0,76,0.00,,,0.00,meteohub,2013-07-26 11:31:00,
2013-07-26 06:32:00,74.5,66.4,-100.00,South,180,0.0,0.0,76,0.00,,,0.00,meteohub,2013-07-26 11:32:00,
2013-07-26 06:35:00,74.5,66.7,-100.00,South,180,0.0,0.0,77,0.00,,,0.00,meteohub,2013-07-26 11:35:00,
2013-07-26 06:37:00,74.5,66.7,-100.00,South,180,0.0,0.0,77,0.00,,,0.00,meteohub,2013-07-26 11:37:00,
2013-07-26 06:41:00,74.5,66.7,-100.00,South,180,0.0,0.0,77,0.00,,,0.00,meteohub,2013-07-26 11:41:00,
2013-07-26 06:43:00,74.5,66.7,-100.00,South,180,0.0,0.0,77,0.00,,,0.00,meteohub,2013-07-26 11:43:00,
2013-07-26 06:45:00,74.5,66.7,-100.00,South,180,0.0,0.0,77,0.00,,,0.00,meteohub,2013-07-26 11:45:00,
2013-07-26 06:51:00,74.3,66.6,-100.00,South,180,0.0,0.0,77,0.00,,,0.00,meteohub,2013-07-26 11:51:00,
2013-07-26 06:53:00,74.3,66.6,-100.00,East,90,0.0,0.0,77,0.00,,,0.00,meteohub,2013-07-26 11:53:00,
2013-07-26 06:55:00,74.3,66.6,-100.00,East,90,0.0,0.0,77,0.00,,,0.00,meteohub,2013-07-26 11:55:00,
2013-07-26 06:59:00,74.3,66.6,-100.00,East,90,0.0,0.0,77,0.00,,,0.00,meteohub,2013-07-26 11:59:00,
2013-07-26 07:01:00,74.3,66.9,-100.00,East,90,0.0,0.0,78,0.00,,,0.00,meteohub,2013-07-26 12:01:00,
2013-07-26 07:02:00,74.3,66.9,-100.00,East,90,0.0,0.0,78,0.00,,,0.00,meteohub,2013-07-26 12:02:00,
2013-07-26 07:03:00,74.3,66.9,-100.00,South,180,0.0,0.0,78,0.00,,,0.00,meteohub,2013-07-26 12:03:00,
2013-07-26 07:05:00,74.1,66.7,-100.00,SSW,203,0.0,0.0,78,0.00,,,0.00,meteohub,2013-07-26 12:05:00,
2013-07-26 07:09:00,74.1,66.7,-100.00,South,180,0.0,0.0,78,0.00,,,0.00,meteohub,2013-07-26 12:09:00,
2013-07-26 07:11:00,74.1,66.7,-100.00,South,180,0.0,0.0,78,0.00,,,0.00,meteohub,2013-07-26 12:11:00,
2013-07-26 07:13:00,74.1,66.7,-100.00,South,180,0.0,0.0,78,0.00,,,0.00,meteohub,2013-07-26 12:13:00,
2013-07-26 07:17:00,74.1,66.7,-100.00,SW,225,0.0,0.0,78,0.00,,,0.00,meteohub,2013-07-26 12:17:00,
2013-07-26 07:23:00,74.1,67.1,-100.00,SSE,158,0.0,0.0,79,0.00,,,0.00,meteohub,2013-07-26 12:23:00,
2013-07-26 07:25:00,74.1,67.1,-100.00,SSE,158,0.0,0.0,79,0.00,,,0.00,meteohub,2013-07-26 12:25:00,
2013-07-26 07:28:00,74.1,67.1,-100.00,South,180,0.0,0.0,79,0.00,,,0.00,meteohub,2013-07-26 12:28:00,
2013-07-26 07:30:00,74.1,67.1,-100.00,South,180,0.0,0.0,79,0.00,,,0.00,meteohub,2013-07-26 12:30:00,
2013-07-26 07:32:00,74.1,67.1,-100.00,SW,225,2.0,0.0,79,0.00,,,0.00,meteohub,2013-07-26 12:32:00,
2013-07-26 07:34:00,74.1,67.1,-100.00,ESE,113,0.0,0.0,79,0.00,,,0.00,meteohub,2013-07-26 12:34:00,
2013-07-26 07:40:00,74.3,67.3,-100.00,SSW,203,1.0,2.0,79,0.00,,,0.00,meteohub,2013-07-26 12:40:00,
2013-07-26 07:42:00,74.3,67.3,-100.00,SW,225,0.0,2.0,79,0.00,,,0.00,meteohub,2013-07-26 12:42:00,
2013-07-26 07:47:00,74.5,67.5,-100.00,SW,225,0.0,2.0,79,0.00,,,0.00,meteohub,2013-07-26 12:47:00,
2013-07-26 07:48:00,74.5,67.8,-100.00,South,180,2.0,2.0,80,0.00,,,0.00,meteohub,2013-07-26 12:48:00,
2013-07-26 07:50:00,74.7,68.0,-100.00,South,180,0.0,2.0,80,0.00,,,0.00,meteohub,2013-07-26 12:50:00,
2013-07-26 07:54:00,74.5,67.8,-100.00,SW,225,0.0,2.0,80,0.00,,,0.00,meteohub,2013-07-26 12:54:00,
2013-07-26 07:56:00,74.8,68.2,-100.00,ESE,113,0.0,2.0,80,0.00,,,0.00,meteohub,2013-07-26 12:56:00,
2013-07-26 07:58:00,74.8,68.2,-100.00,East,90,0.0,2.0,80,0.00,,,0.00,meteohub,2013-07-26 12:58:00,
2013-07-26 08:00:00,74.8,68.2,-100.00,East,90,0.0,2.0,80,0.00,,,0.00,meteohub,2013-07-26 13:00:00,
2013-07-26 08:02:00,74.8,68.5,-100.00,East,90,0.0,2.0,81,0.00,,,0.00,meteohub,2013-07-26 13:02:00,
2013-07-26 08:04:00,74.8,68.5,-100.00,SW,225,0.0,2.0,81,0.00,,,0.00,meteohub,2013-07-26 13:04:00,
2013-07-26 08:08:00,75.0,68.7,-100.00,NE,45,0.0,0.0,81,0.00,,,0.00,meteohub,2013-07-26 13:08:00,
2013-07-26 08:10:00,75.2,68.9,-100.00,SE,135,0.0,0.0,81,0.00,,,0.00,meteohub,2013-07-26 13:10:00,
2013-07-26 08:14:00,75.4,69.1,-100.00,South,180,0.0,0.0,81,0.00,,,0.00,meteohub,2013-07-26 13:14:00,
2013-07-26 08:16:00,75.6,69.3,-100.00,South,180,0.0,0.0,81,0.00,,,0.00,meteohub,2013-07-26 13:16:00,
2013-07-26 08:17:00,75.6,69.3,-100.00,South,180,0.0,0.0,81,0.00,,,0.00,meteohub,2013-07-26 13:17:00,
2013-07-26 08:18:00,75.7,69.4,-100.00,South,180,0.0,0.0,81,0.00,,,0.00,meteohub,2013-07-26 13:18:00,
2013-07-26 08:22:00,75.9,69.3,-100.00,SSE,158,0.0,0.0,80,0.00,,,0.00,meteohub,2013-07-26 13:22:00,
2013-07-26 08:24:00,75.9,69.3,-100.00,SSE,158,1.0,0.0,80,0.00,,,0.00,meteohub,2013-07-26 13:24:00,
2013-07-26 08:28:00,76.1,69.4,-100.00,ESE,113,0.0,2.0,80,0.00,,,0.00,meteohub,2013-07-26 13:28:00,
2013-07-26 08:30:00,76.3,69.6,-100.00,SSE,158,0.0,2.0,80,0.00,,,0.00,meteohub,2013-07-26 13:30:00,
2013-07-26 08:32:00,76.3,69.6,-100.00,SSE,158,0.0,2.0,80,0.00,,,0.00,meteohub,2013-07-26 13:32:00,
2013-07-26 08:36:00,76.6,70.0,-100.00,SSE,158,0.0,2.0,80,0.00,,,0.00,meteohub,2013-07-26 13:36:00,
2013-07-26 08:40:00,76.8,70.2,-100.00,WSW,248,1.0,3.0,80,0.00,,,0.00,meteohub,2013-07-26 13:40:00,
2013-07-26 08:42:00,76.8,69.8,-100.00,ESE,113,2.0,3.0,79,0.00,,,0.00,meteohub,2013-07-26 13:42:00,
2013-07-26 08:48:00,77.2,69.8,-100.00,South,180,3.0,3.0,78,0.00,,,0.00,meteohub,2013-07-26 13:48:00,
2013-07-26 08:50:00,77.4,70.0,-100.00,South,180,0.0,3.0,78,0.00,,,0.00,meteohub,2013-07-26 13:50:00,
2013-07-26 08:52:00,77.5,69.8,-100.00,South,180,1.0,3.0,77,0.00,,,0.00,meteohub,2013-07-26 13:52:00,
2013-07-26 08:54:00,77.5,69.8,-100.00,ESE,113,1.0,3.0,77,0.00,,,0.00,meteohub,2013-07-26 13:54:00,
2013-07-26 08:57:00,77.9,70.2,-100.00,East,90,0.0,3.0,77,0.00,,,0.00,meteohub,2013-07-26 13:57:00,
2013-07-26 08:59:00,77.9,70.2,-100.00,SSW,203,4.0,4.0,77,0.00,,,0.00,meteohub,2013-07-26 13:59:00,
2013-07-26 09:01:00,78.1,70.0,-100.00,South,180,0.0,4.0,76,0.00,,,0.00,meteohub,2013-07-26 14:01:00,
2013-07-26 09:03:00,78.4,69.8,-100.00,SSE,158,0.0,4.0,75,0.00,,,0.00,meteohub,2013-07-26 14:03:00,
2013-07-26 09:05:00,78.4,69.8,-100.00,NE,45,0.0,4.0,75,0.00,,,0.00,meteohub,2013-07-26 14:05:00,
2013-07-26 09:07:00,78.6,70.0,-100.00,SW,225,1.0,4.0,75,0.00,,,0.00,meteohub,2013-07-26 14:07:00,
2013-07-26 09:09:00,78.6,69.6,-100.00,WNW,293,0.0,4.0,74,0.00,,,0.00,meteohub,2013-07-26 14:09:00,
2013-07-26 09:13:00,79.0,69.6,-100.00,ESE,113,0.0,4.0,73,0.00,,,0.00,meteohub,2013-07-26 14:13:00,
2013-07-26 09:15:00,79.3,69.4,-100.00,WSW,248,0.0,4.0,72,0.00,,,0.00,meteohub,2013-07-26 14:15:00,
2013-07-26 09:17:00,79.3,69.4,-100.00,WSW,248,0.0,2.0,72,0.00,,,0.00,meteohub,2013-07-26 14:17:00,
2013-07-26 09:19:00,79.3,69.4,-100.00,East,90,2.0,2.0,72,0.00,,,0.00,meteohub,2013-07-26 14:19:00,
2013-07-26 09:25:00,79.9,69.3,-100.00,SSW,203,1.0,2.0,70,0.00,,,0.00,meteohub,2013-07-26 14:25:00,
2013-07-26 09:31:00,80.4,68.5,-100.00,South,180,2.0,2.0,67,0.00,,,0.00,meteohub,2013-07-26 14:31:00,
2013-07-26 09:32:00,80.4,68.5,-100.00,South,180,2.0,2.0,67,0.00,,,0.00,meteohub,2013-07-26 14:32:00,
2013-07-26 09:33:00,80.4,68.5,-100.00,SE,135,0.0,2.0,67,0.00,,,0.00,meteohub,2013-07-26 14:33:00,
2013-07-26 09:37:00,80.8,68.7,-100.00,South,180,2.0,2.0,67,0.00,,,0.00,meteohub,2013-07-26 14:37:00,
2013-07-26 09:39:00,81.0,68.5,-100.00,NW,315,1.0,2.0,66,0.00,,,0.00,meteohub,2013-07-26 14:39:00,
2013-07-26 09:41:00,81.1,68.7,-100.00,SSE,158,2.0,2.0,66,0.00,,,0.00,meteohub,2013-07-26 14:41:00,
2013-07-26 09:43:00,81.1,68.2,-100.00,West,270,0.0,2.0,65,0.00,,,0.00,meteohub,2013-07-26 14:43:00,
2013-07-26 09:47:00,81.3,68.4,-100.00,South,180,0.0,2.0,65,0.00,,,0.00,meteohub,2013-07-26 14:47:00,
2013-07-26 09:49:00,81.5,68.5,-100.00,South,180,0.0,2.0,65,0.00,,,0.00,meteohub,2013-07-26 14:49:00,
2013-07-26 09:51:00,81.7,68.7,-100.00,SSE,158,0.0,2.0,65,0.00,,,0.00,meteohub,2013-07-26 14:51:00,
2013-07-26 09:55:00,82.0,68.7,-100.00,South,180,3.0,3.0,64,0.00,,,0.00,meteohub,2013-07-26 14:55:00,
2013-07-26 09:57:00,82.2,68.4,-100.00,South,180,3.0,3.0,63,0.00,,,0.00,meteohub,2013-07-26 14:57:00,
2013-07-26 10:02:00,82.4,68.5,-100.00,South,180,0.0,3.0,63,0.00,,,0.00,meteohub,2013-07-26 15:02:00,
2013-07-26 10:03:00,82.6,68.7,-100.00,South,180,0.0,3.0,63,0.00,,,0.00,meteohub,2013-07-26 15:03:00,
2013-07-26 10:09:00,82.9,68.5,-100.00,South,180,3.0,3.0,62,0.00,,,0.00,meteohub,2013-07-26 15:09:00,
2013-07-26 10:11:00,82.9,68.5,-100.00,South,180,1.0,4.0,62,0.00,,,0.00,meteohub,2013-07-26 15:11:00,
2013-07-26 10:17:00,83.1,68.4,-100.00,West,270,0.0,4.0,61,0.00,,,0.00,meteohub,2013-07-26 15:17:00,
2013-07-26 10:19:00,83.7,68.7,-100.00,SSE,158,0.0,4.0,61,0.00,,,0.00,meteohub,2013-07-26 15:19:00,
2013-07-26 10:21:00,83.8,68.9,-100.00,South,180,2.0,4.0,61,0.00,,,0.00,meteohub,2013-07-26 15:21:00,
2013-07-26 10:23:00,84.0,68.7,-100.00,SW,225,0.0,4.0,60,0.00,,,0.00,meteohub,2013-07-26 15:23:00,
2013-07-26 10:25:00,84.0,68.2,-100.00,SSW,203,4.0,4.0,59,0.00,,,0.00,meteohub,2013-07-26 15:25:00,
2013-07-26 10:27:00,84.0,68.2,-100.00,SSW,203,4.0,4.0,59,0.00,,,0.00,meteohub,2013-07-26 15:27:00,
2013-07-26 10:31:00,84.4,68.5,-100.00,WSW,248,1.0,4.0,59,0.00,,,0.00,meteohub,2013-07-26 15:31:00,
2013-07-26 10:32:00,84.4,68.5,-100.00,WSW,248,1.0,4.0,59,0.00,,,0.00,meteohub,2013-07-26 15:32:00,
2013-07-26 10:33:00,84.6,68.2,-100.00,East,90,1.0,4.0,58,0.00,,,0.00,meteohub,2013-07-26 15:33:00,
2013-07-26 10:35:00,84.7,67.8,-100.00,SW,225,4.0,4.0,57,0.00,,,0.00,meteohub,2013-07-26 15:35:00,
2013-07-26 10:37:00,84.7,67.8,-100.00,ESE,113,1.0,4.0,57,0.00,,,0.00,meteohub,2013-07-26 15:37:00,
2013-07-26 10:39:00,84.9,68.0,-100.00,South,180,1.0,4.0,57,0.00,,,0.00,meteohub,2013-07-26 15:39:00,
2013-07-26 10:43:00,85.1,67.6,-100.00,WSW,248,1.0,4.0,56,0.00,,,0.00,meteohub,2013-07-26 15:43:00,
2013-07-26 10:45:00,85.1,67.6,-100.00,South,180,1.0,4.0,56,0.00,,,0.00,meteohub,2013-07-26 15:45:00,
2013-07-26 10:47:00,85.1,67.6,-100.00,South,180,1.0,4.0,56,0.00,,,0.00,meteohub,2013-07-26 15:47:00,
2013-07-26 10:54:00,86.2,68.2,-100.00,SSW,203,2.0,4.0,55,0.00,,,0.00,meteohub,2013-07-26 15:54:00,
2013-07-26 10:56:00,86.2,68.2,-100.00,South,180,2.0,2.0,55,0.00,,,0.00,meteohub,2013-07-26 15:56:00,
2013-07-26 10:58:00,86.2,68.2,-100.00,South,180,2.0,2.0,55,0.00,,,0.00,meteohub,2013-07-26 15:58:00,
2013-07-26 11:00:00,86.4,68.4,-100.00,SSE,158,2.0,2.0,55,0.00,,,0.00,meteohub,2013-07-26 16:00:00,
2013-07-26 11:02:00,86.5,68.0,-100.00,SSE,158,1.0,2.0,54,0.00,,,0.00,meteohub,2013-07-26 16:02:00,
2013-07-26 11:04:00,86.7,68.0,-100.00,South,180,1.0,2.0,54,0.00,,,0.00,meteohub,2013-07-26 16:04:00,
2013-07-26 11:10:00,87.1,68.4,-100.00,SSE,158,1.0,2.0,54,0.00,,,0.00,meteohub,2013-07-26 16:10:00,
2013-07-26 11:12:00,87.3,68.5,-100.00,SE,135,1.0,4.0,54,0.00,,,0.00,meteohub,2013-07-26 16:12:00,
2013-07-26 11:17:00,87.4,68.7,-100.00,South,180,2.0,4.0,54,0.00,,,0.00,meteohub,2013-07-26 16:17:00,
2013-07-26 11:18:00,87.4,68.7,-100.00,SSE,158,2.0,4.0,54,0.00,,,0.00,meteohub,2013-07-26 16:18:00,
2013-07-26 11:20:00,87.6,68.9,-100.00,West,270,3.0,4.0,54,0.00,,,0.00,meteohub,2013-07-26 16:20:00,
2013-07-26 11:22:00,87.6,68.9,-100.00,South,180,1.0,4.0,54,0.00,,,0.00,meteohub,2013-07-26 16:22:00,
2013-07-26 11:26:00,88.0,69.3,-100.00,SSW,203,0.0,3.0,54,0.00,,,0.00,meteohub,2013-07-26 16:26:00,
2013-07-26 11:28:00,88.2,68.9,-100.00,SE,135,2.0,3.0,53,0.00,,,0.00,meteohub,2013-07-26 16:28:00,
2013-07-26 11:34:00,88.3,69.1,-100.00,SSW,203,6.0,6.0,53,0.00,,,0.00,meteohub,2013-07-26 16:34:00,
2013-07-26 11:36:00,88.3,69.1,-100.00,SW,225,4.0,6.0,53,0.00,,,0.00,meteohub,2013-07-26 16:36:00,
2013-07-26 11:40:00,88.7,69.4,-100.00,South,180,4.0,6.0,53,0.00,,,0.00,meteohub,2013-07-26 16:40:00,
2013-07-26 11:46:00,89.2,69.3,-100.00,West,270,1.0,6.0,52,0.00,,,0.00,meteohub,2013-07-26 16:46:00,
2013-07-26 11:47:00,89.2,69.3,-100.00,West,270,1.0,6.0,52,0.00,,,0.00,meteohub,2013-07-26 16:47:00,
2013-07-26 11:48:00,89.4,69.4,-100.00,West,270,3.0,6.0,52,0.00,,,0.00,meteohub,2013-07-26 16:48:00,
2013-07-26 11:52:00,89.4,68.9,-100.00,ESE,113,2.0,4.0,51,0.00,,,0.00,meteohub,2013-07-26 16:52:00,
2013-07-26 11:54:00,89.6,69.1,-100.00,South,180,3.0,4.0,51,0.00,,,0.00,meteohub,2013-07-26 16:54:00,
2013-07-26 12:00:00,90.0,69.4,-100.00,SW,225,1.0,4.0,51,0.00,,,0.00,meteohub,2013-07-26 17:00:00,
2013-07-26 12:02:00,90.0,69.4,-100.00,SW,225,1.0,4.0,51,0.00,,,0.00,meteohub,2013-07-26 17:02:00,
2013-07-26 12:04:00,90.1,69.6,-100.00,East,90,2.0,4.0,51,0.00,,,0.00,meteohub,2013-07-26 17:04:00,
2013-07-26 12:06:00,90.1,69.6,-100.00,East,90,2.0,4.0,51,0.00,,,0.00,meteohub,2013-07-26 17:06:00,
2013-07-26 12:08:00,90.1,69.6,-100.00,ESE,113,1.0,4.0,51,0.00,,,0.00,meteohub,2013-07-26 17:08:00,
2013-07-26 12:10:00,90.3,69.8,-100.00,South,180,4.0,4.0,51,0.00,,,0.00,meteohub,2013-07-26 17:10:00,
2013-07-26 12:12:00,90.3,69.8,-100.00,South,180,4.0,4.0,51,0.00,,,0.00,meteohub,2013-07-26 17:12:00,
2013-07-26 12:14:00,90.3,68.5,-100.00,East,90,2.0,4.0,49,0.00,,,0.00,meteohub,2013-07-26 17:14:00,
2013-07-26 12:16:00,90.5,69.3,-100.00,South,180,2.0,4.0,50,0.00,,,0.00,meteohub,2013-07-26 17:16:00,
2013-07-26 12:22:00,91.0,69.3,-100.00,East,90,1.0,4.0,49,0.00,,,0.00,meteohub,2013-07-26 17:22:00,
2013-07-26 12:24:00,91.0,69.3,-100.00,SSW,203,2.0,4.0,49,0.00,,,0.00,meteohub,2013-07-26 17:24:00,
2013-07-26 12:28:00,91.2,70.0,-100.00,North,0,0.0,4.0,50,0.00,,,0.00,meteohub,2013-07-26 17:28:00,
2013-07-26 12:32:00,91.2,69.4,-100.00,ENE,68,1.0,2.0,49,0.00,,,0.00,meteohub,2013-07-26 17:32:00,
2013-07-26 12:34:00,91.6,69.1,-100.00,NW,315,0.0,2.0,48,0.00,,,0.00,meteohub,2013-07-26 17:34:00,
2013-07-26 12:40:00,92.1,69.6,-100.00,South,180,0.0,2.0,48,0.00,,,0.00,meteohub,2013-07-26 17:40:00,
2013-07-26 12:42:00,92.1,69.6,-100.00,South,180,0.0,2.0,48,0.00,,,0.00,meteohub,2013-07-26 17:42:00,
2013-07-26 12:44:00,92.1,69.6,-100.00,SW,225,0.0,2.0,48,0.00,,,0.00,meteohub,2013-07-26 17:44:00,
2013-07-26 12:47:00,92.3,69.1,-100.00,West,270,0.0,2.0,47,0.00,,,0.00,meteohub,2013-07-26 17:47:00,
2013-07-26 12:49:00,92.5,69.3,-100.00,WNW,293,1.0,2.0,47,0.00,,,0.00,meteohub,2013-07-26 17:49:00,
2013-07-26 12:53:00,92.8,70.3,-100.00,North,0,0.0,2.0,48,0.00,,,0.00,meteohub,2013-07-26 17:53:00,
2013-07-26 12:57:00,93.4,70.2,-100.00,SSE,158,4.0,4.0,47,0.00,,,0.00,meteohub,2013-07-26 17:57:00,
2013-07-26 12:59:00,93.4,70.2,-100.00,West,270,1.0,2.0,47,0.00,,,0.00,meteohub,2013-07-26 17:59:00,
2013-07-26 13:01:00,93.6,70.3,-100.00,ESE,113,2.0,4.0,47,0.00,,,0.00,meteohub,2013-07-26 18:01:00,
2013-07-26 13:03:00,93.6,69.6,-100.00,East,90,1.0,4.0,46,0.00,,,0.00,meteohub,2013-07-26 18:03:00,
2013-07-26 13:05:00,93.9,70.0,-100.00,ESE,113,2.0,4.0,46,0.00,,,0.00,meteohub,2013-07-26 18:05:00,
2013-07-26 13:09:00,94.1,69.4,-100.00,ESE,113,1.0,4.0,45,0.00,,,0.00,meteohub,2013-07-26 18:09:00,
2013-07-26 13:15:00,94.3,69.6,-100.00,ESE,113,0.0,4.0,45,0.00,,,0.00,meteohub,2013-07-26 18:15:00,
2013-07-26 13:17:00,94.3,69.6,-100.00,ESE,113,0.0,2.0,45,0.00,,,0.00,meteohub,2013-07-26 18:17:00,
2013-07-26 13:23:00,94.3,69.1,-100.00,SSE,158,3.0,3.0,44,0.00,,,0.00,meteohub,2013-07-26 18:23:00,
2013-07-26 13:27:00,94.6,69.3,-100.00,SSE,158,2.0,3.0,44,0.00,,,0.00,meteohub,2013-07-26 18:27:00,
2013-07-26 13:29:00,94.6,69.3,-100.00,SSE,158,2.0,3.0,44,0.00,,,0.00,meteohub,2013-07-26 18:29:00,
2013-07-26 13:31:00,94.6,69.3,-100.00,West,270,2.0,3.0,44,0.00,,,0.00,meteohub,2013-07-26 18:31:00,
2013-07-26 13:32:00,94.6,69.3,-100.00,West,270,2.0,3.0,44,0.00,,,0.00,meteohub,2013-07-26 18:32:00,
2013-07-26 13:33:00,94.8,70.2,-100.00,NW,315,2.0,3.0,45,0.00,,,0.00,meteohub,2013-07-26 18:33:00,
2013-07-26 13:35:00,94.8,70.2,-100.00,ESE,113,3.0,3.0,45,0.00,,,0.00,meteohub,2013-07-26 18:35:00,
2013-07-26 13:37:00,95.0,69.6,-100.00,South,180,4.0,4.0,44,0.00,,,0.00,meteohub,2013-07-26 18:37:00,
2013-07-26 13:39:00,95.4,70.0,-100.00,NW,315,0.0,3.0,44,0.00,,,0.00,meteohub,2013-07-26 18:39:00,
2013-07-26 13:43:00,95.7,69.6,-100.00,WSW,248,1.0,4.0,43,0.00,,,0.00,meteohub,2013-07-26 18:43:00,
2013-07-26 13:45:00,95.9,69.8,-100.00,NW,315,0.0,4.0,43,0.00,,,0.00,meteohub,2013-07-26 18:45:00,
2013-07-26 13:47:00,95.9,69.8,-100.00,NW,315,0.0,4.0,43,0.00,,,0.00,meteohub,2013-07-26 18:47:00,
2013-07-26 13:52:00,96.4,70.3,-100.00,WNW,293,0.0,4.0,43,0.00,,,0.00,meteohub,2013-07-26 18:52:00,
2013-07-26 13:56:00,96.6,69.8,-100.00,West,270,0.0,1.0,42,0.00,,,0.00,meteohub,2013-07-26 18:56:00,
2013-07-26 14:00:00,97.0,68.7,-100.00,SSW,203,0.0,1.0,40,0.00,,,0.00,meteohub,2013-07-26 19:00:00,
2013-07-26 14:02:00,97.0,68.7,-100.00,SSW,203,0.0,1.0,40,0.00,,,0.00,meteohub,2013-07-26 19:02:00,
2013-07-26 14:06:00,97.0,69.4,-100.00,South,180,1.0,1.0,41,0.00,,,0.00,meteohub,2013-07-26 19:06:00,
2013-07-26 14:08:00,97.2,69.4,-100.00,SSW,203,0.0,1.0,41,0.00,,,0.00,meteohub,2013-07-26 19:08:00,
2013-07-26 14:10:00,97.2,69.4,-100.00,WNW,293,0.0,1.0,41,0.00,,,0.00,meteohub,2013-07-26 19:10:00,
2013-07-26 14:12:00,97.3,69.6,-100.00,NE,45,0.0,1.0,41,0.00,,,0.00,meteohub,2013-07-26 19:12:00,
2013-07-26 14:14:00,97.5,69.8,-100.00,SSW,203,1.0,1.0,41,0.00,,,0.00,meteohub,2013-07-26 19:14:00,
2013-07-26 14:16:00,97.5,69.1,-100.00,SSE,158,0.0,1.0,40,0.00,,,0.00,meteohub,2013-07-26 19:16:00,
2013-07-26 14:20:00,97.5,67.6,-100.00,South,180,2.0,2.0,38,0.00,,,0.00,meteohub,2013-07-26 19:20:00,
2013-07-26 14:22:00,97.5,68.4,-100.00,SE,135,1.0,1.0,39,0.00,,,0.00,meteohub,2013-07-26 19:22:00,
2013-07-26 14:28:00,97.7,68.5,-100.00,NW,315,1.0,2.0,39,0.00,,,0.00,meteohub,2013-07-26 19:28:00,
2013-07-26 14:32:00,97.7,68.5,-100.00,WNW,293,0.0,2.0,39,0.00,,,0.00,meteohub,2013-07-26 19:32:00,
2013-07-26 14:34:00,97.9,68.7,-100.00,SSE,158,2.0,2.0,39,0.00,,,0.00,meteohub,2013-07-26 19:34:00,
2013-07-26 14:36:00,97.9,68.7,-100.00,SSE,158,2.0,2.0,39,0.00,,,0.00,meteohub,2013-07-26 19:36:00,
2013-07-26 14:38:00,97.9,68.0,-100.00,SE,135,1.0,2.0,38,0.00,,,0.00,meteohub,2013-07-26 19:38:00,
2013-07-26 14:40:00,97.9,68.0,-100.00,SSW,203,1.0,2.0,38,0.00,,,0.00,meteohub,2013-07-26 19:40:00,
2013-07-26 14:42:00,97.9,68.0,-100.00,East,90,2.0,2.0,38,0.00,,,0.00,meteohub,2013-07-26 19:42:00,
2013-07-26 14:44:00,97.9,68.0,-100.00,ESE,113,3.0,3.0,38,0.00,,,0.00,meteohub,2013-07-26 19:44:00,
2013-07-26 14:46:00,97.5,67.6,-100.00,NNE,23,3.0,3.0,38,0.00,,,0.00,meteohub,2013-07-26 19:46:00,
2013-07-26 14:48:00,97.5,67.6,-100.00,ESE,113,0.0,2.0,38,0.00,,,0.00,meteohub,2013-07-26 19:48:00,
2013-07-26 14:52:00,97.3,68.2,-100.00,SE,135,0.0,3.0,39,0.00,,,0.00,meteohub,2013-07-26 19:52:00,
2013-07-26 14:54:00,97.3,67.5,-100.00,SSW,203,1.0,3.0,38,0.00,,,0.00,meteohub,2013-07-26 19:54:00,
2013-07-26 14:56:00,97.2,67.3,-100.00,WSW,248,2.0,3.0,38,0.00,,,0.00,meteohub,2013-07-26 19:56:00,
2013-07-26 15:00:00,97.2,67.3,-100.00,SE,135,1.0,3.0,38,0.00,,,0.00,meteohub,2013-07-26 20:00:00,
2013-07-26 15:02:00,97.0,67.8,-100.00,West,270,0.0,3.0,39,0.00,,,0.00,meteohub,2013-07-26 20:02:00,
2013-07-26 15:06:00,97.2,67.3,-100.00,North,0,1.0,2.0,38,0.00,,,0.00,meteohub,2013-07-26 20:06:00,
2013-07-26 15:08:00,97.3,67.5,-100.00,SSW,203,3.0,3.0,38,0.00,,,0.00,meteohub,2013-07-26 20:08:00,
2013-07-26 15:12:00,97.2,68.0,-100.00,SE,135,2.0,2.0,39,0.00,,,0.00,meteohub,2013-07-26 20:12:00,
2013-07-26 15:14:00,97.3,68.2,-100.00,SE,135,2.0,2.0,39,0.00,,,0.00,meteohub,2013-07-26 20:14:00,
2013-07-26 15:19:00,97.3,66.7,-100.00,SW,225,2.0,3.0,37,0.00,,,0.00,meteohub,2013-07-26 20:19:00,
2013-07-26 15:21:00,97.3,67.5,-100.00,SSE,158,0.0,3.0,38,0.00,,,0.00,meteohub,2013-07-26 20:21:00,
2013-07-26 15:25:00,97.0,67.1,-100.00,NNE,23,0.0,3.0,38,0.00,,,0.00,meteohub,2013-07-26 20:25:00,
2013-07-26 15:27:00,97.0,67.1,-100.00,SW,225,1.0,3.0,38,0.00,,,0.00,meteohub,2013-07-26 20:27:00,
2013-07-26 15:29:00,97.0,67.1,-100.00,ESE,113,0.0,3.0,38,0.00,,,0.00,meteohub,2013-07-26 20:29:00,
2013-07-26 15:32:00,97.2,67.3,-100.00,South,180,0.0,2.0,38,0.00,,,0.00,meteohub,2013-07-26 20:32:00,
2013-07-26 15:33:00,97.3,67.5,-100.00,SSW,203,0.0,2.0,38,0.00,,,0.00,meteohub,2013-07-26 20:33:00,
2013-07-26 15:37:00,97.5,66.9,-100.00,SE,135,1.0,1.0,37,0.00,,,0.00,meteohub,2013-07-26 20:37:00,
2013-07-26 15:39:00,97.5,66.9,-100.00,South,180,1.0,1.0,37,0.00,,,0.00,meteohub,2013-07-26 20:39:00,
2013-07-26 15:41:00,97.7,67.1,-100.00,North,0,0.0,1.0,37,0.00,,,0.00,meteohub,2013-07-26 20:41:00,
2013-07-26 15:43:00,97.7,67.1,-100.00,West,270,0.0,1.0,37,0.00,,,0.00,meteohub,2013-07-26 20:43:00,
2013-07-26 15:45:00,97.7,67.1,-100.00,NNE,23,0.0,1.0,37,0.00,,,0.00,meteohub,2013-07-26 20:45:00,
2013-07-26 15:47:00,97.9,67.1,-100.00,SSW,203,2.0,2.0,37,0.00,,,0.00,meteohub,2013-07-26 20:47:00,
2013-07-26 15:49:00,97.9,67.1,-100.00,SSW,203,2.0,2.0,37,0.00,,,0.00,meteohub,2013-07-26 20:49:00,
2013-07-26 15:53:00,97.9,66.4,-100.00,East,90,2.0,2.0,36,0.00,,,0.00,meteohub,2013-07-26 20:53:00,
2013-07-26 15:55:00,97.7,66.2,-100.00,SE,135,2.0,2.0,36,0.00,,,0.00,meteohub,2013-07-26 20:55:00,
2013-07-26 15:57:00,97.7,65.5,-100.00,ESE,113,2.0,3.0,35,0.00,,,0.00,meteohub,2013-07-26 20:57:00,
2013-07-26 15:59:00,97.7,65.5,-100.00,ESE,113,1.0,3.0,35,0.00,,,0.00,meteohub,2013-07-26 20:59:00,
2013-07-26 16:05:00,97.7,66.2,-100.00,East,90,0.0,3.0,36,0.00,,,0.00,meteohub,2013-07-26 21:05:00,
2013-07-26 16:07:00,97.7,65.5,-100.00,East,90,1.0,3.0,35,0.00,,,0.00,meteohub,2013-07-26 21:07:00,
2013-07-26 16:09:00,97.9,66.4,-100.00,SE,135,0.0,3.0,36,0.00,,,0.00,meteohub,2013-07-26 21:09:00,
2013-07-26 16:13:00,97.9,66.4,-100.00,West,270,1.0,2.0,36,0.00,,,0.00,meteohub,2013-07-26 21:13:00,
2013-07-26 16:17:00,97.9,65.7,-100.00,SSE,158,0.0,1.0,35,0.00,,,0.00,meteohub,2013-07-26 21:17:00,
2013-07-26 16:19:00,97.9,65.7,-100.00,SSE,158,0.0,1.0,35,0.00,,,0.00,meteohub,2013-07-26 21:19:00,
2013-07-26 16:25:00,97.7,64.6,-100.00,South,180,0.0,2.0,34,0.00,,,0.00,meteohub,2013-07-26 21:25:00,
2013-07-26 16:27:00,97.7,64.6,-100.00,South,180,0.0,2.0,34,0.00,,,0.00,meteohub,2013-07-26 21:27:00,
2013-07-26 16:29:00,97.7,65.5,-100.00,South,180,1.0,2.0,35,0.00,,,0.00,meteohub,2013-07-26 21:29:00,
2013-07-26 16:32:00,97.7,66.2,-100.00,ENE,68,3.0,3.0,36,0.00,,,0.00,meteohub,2013-07-26 21:32:00,
2013-07-26 16:33:00,97.7,66.2,-100.00,ENE,68,3.0,3.0,36,0.00,,,0.00,meteohub,2013-07-26 21:33:00,
2013-07-26 16:35:00,97.7,66.2,-100.00,SE,135,1.0,4.0,36,0.00,,,0.00,meteohub,2013-07-26 21:35:00,
2013-07-26 16:37:00,97.9,66.4,-100.00,SE,135,1.0,4.0,36,0.00,,,0.00,meteohub,2013-07-26 21:37:00,
2013-07-26 16:39:00,97.9,66.4,-100.00,ENE,68,4.0,4.0,36,0.00,,,0.00,meteohub,2013-07-26 21:39:00,
2013-07-26 16:41:00,97.9,66.4,-100.00,SE,135,2.0,4.0,36,0.00,,,0.00,meteohub,2013-07-26 21:41:00,
2013-07-26 16:43:00,97.9,66.4,-100.00,ENE,68,1.0,4.0,36,0.00,,,0.00,meteohub,2013-07-26 21:43:00,
2013-07-26 16:45:00,98.1,66.6,-100.00,SE,135,2.0,4.0,36,0.00,,,0.00,meteohub,2013-07-26 21:45:00,
2013-07-26 16:47:00,98.1,66.6,-100.00,SE,135,2.0,4.0,36,0.00,,,0.00,meteohub,2013-07-26 21:47:00,
2013-07-26 16:49:00,97.9,66.4,-100.00,NE,45,2.0,4.0,36,0.00,,,0.00,meteohub,2013-07-26 21:49:00,
2013-07-26 16:55:00,97.7,66.2,-100.00,East,90,1.0,2.0,36,0.00,,,0.00,meteohub,2013-07-26 21:55:00,
2013-07-26 16:57:00,97.5,66.0,-100.00,ESE,113,1.0,2.0,36,0.00,,,0.00,meteohub,2013-07-26 21:57:00,
2013-07-26 17:01:00,97.5,66.0,-100.00,ESE,113,1.0,2.0,36,0.00,,,0.00,meteohub,2013-07-26 22:01:00,
2013-07-26 17:02:00,97.5,66.0,-100.00,ESE,113,1.0,2.0,36,0.00,,,0.00,meteohub,2013-07-26 22:02:00,
2013-07-26 17:03:00,97.3,65.8,-100.00,SE,135,1.0,2.0,36,0.00,,,0.00,meteohub,2013-07-26 22:03:00,
2013-07-26 17:07:00,97.0,66.4,-100.00,SSE,158,0.0,2.0,37,0.00,,,0.00,meteohub,2013-07-26 22:07:00,
2013-07-26 17:09:00,97.0,66.4,-100.00,SSW,203,3.0,3.0,37,0.00,,,0.00,meteohub,2013-07-26 22:09:00,
2013-07-26 17:12:00,96.6,66.0,-100.00,SW,225,0.0,3.0,37,0.00,,,0.00,meteohub,2013-07-26 22:12:00,
2013-07-26 17:14:00,96.6,66.0,-100.00,SW,225,1.0,3.0,37,0.00,,,0.00,meteohub,2013-07-26 22:14:00,
2013-07-26 17:17:00,96.4,65.8,-100.00,SSW,203,2.0,3.0,37,0.00,,,0.00,meteohub,2013-07-26 22:17:00,
2013-07-26 17:18:00,96.4,65.8,-100.00,SSW,203,2.0,3.0,37,0.00,,,0.00,meteohub,2013-07-26 22:18:00,
2013-07-26 17:24:00,96.1,65.7,-100.00,SSE,158,1.0,3.0,37,0.00,,,0.00,meteohub,2013-07-26 22:24:00,
2013-07-26 17:26:00,95.9,65.5,-100.00,SSW,203,1.0,4.0,37,0.00,,,0.00,meteohub,2013-07-26 22:26:00,
2013-07-26 17:30:00,96.1,65.7,-100.00,SW,225,0.0,4.0,37,0.00,,,0.00,meteohub,2013-07-26 22:30:00,
2013-07-26 17:32:00,96.1,65.7,-100.00,ENE,68,1.0,4.0,37,0.00,,,0.00,meteohub,2013-07-26 22:32:00,
2013-07-26 17:36:00,95.9,65.5,-100.00,East,90,0.0,4.0,37,0.00,,,0.00,meteohub,2013-07-26 22:36:00,
2013-07-26 17:38:00,95.9,65.5,-100.00,East,90,0.0,4.0,37,0.00,,,0.00,meteohub,2013-07-26 22:38:00,
2013-07-26 17:40:00,95.9,65.5,-100.00,SSW,203,0.0,4.0,37,0.00,,,0.00,meteohub,2013-07-26 22:40:00,
2013-07-26 17:44:00,95.9,65.5,-100.00,SSW,203,0.0,2.0,37,0.00,,,0.00,meteohub,2013-07-26 22:44:00,
2013-07-26 17:46:00,95.7,65.3,-100.00,SSE,158,1.0,2.0,37,0.00,,,0.00,meteohub,2013-07-26 22:46:00,
2013-07-26 17:47:00,95.7,65.3,-100.00,ENE,68,2.0,2.0,37,0.00,,,0.00,meteohub,2013-07-26 22:47:00,
2013-07-26 17:48:00,95.7,65.3,-100.00,ENE,68,2.0,2.0,37,0.00,,,0.00,meteohub,2013-07-26 22:48:00,
2013-07-26 17:50:00,95.7,65.3,-100.00,East,90,1.0,2.0,37,0.00,,,0.00,meteohub,2013-07-26 22:50:00,
2013-07-26 17:54:00,95.5,65.1,-100.00,SSE,158,2.0,2.0,37,0.00,,,0.00,meteohub,2013-07-26 22:54:00,
2013-07-26 17:56:00,95.5,65.1,-100.00,ESE,113,2.0,2.0,37,0.00,,,0.00,meteohub,2013-07-26 22:56:00,
2013-07-26 18:00:00,95.5,65.1,-100.00,SE,135,0.0,2.0,37,0.00,,,0.00,meteohub,2013-07-26 23:00:00,
2013-07-26 18:02:00,95.5,65.1,-100.00,SE,135,0.0,2.0,37,0.00,,,0.00,meteohub,2013-07-26 23:02:00,
2013-07-26 18:06:00,95.5,65.1,-100.00,SW,225,5.0,5.0,37,0.00,,,0.00,meteohub,2013-07-26 23:06:00,
2013-07-26 18:09:00,95.5,65.1,-100.00,South,180,1.0,2.0,37,0.00,,,0.00,meteohub,2013-07-26 23:09:00,
2013-07-26 18:11:00,95.5,65.1,-100.00,SE,135,2.0,5.0,37,0.00,,,0.00,meteohub,2013-07-26 23:11:00,
2013-07-26 18:13:00,95.4,64.9,-100.00,NE,45,1.0,5.0,37,0.00,,,0.00,meteohub,2013-07-26 23:13:00,
2013-07-26 18:17:00,95.4,64.9,-100.00,SSE,158,2.0,5.0,37,0.00,,,0.00,meteohub,2013-07-26 23:17:00,
2013-07-26 18:19:00,95.2,64.8,-100.00,SE,135,2.0,5.0,37,0.00,,,0.00,meteohub,2013-07-26 23:19:00,
2013-07-26 18:21:00,95.2,64.8,-100.00,ENE,68,3.0,5.0,37,0.00,,,0.00,meteohub,2013-07-26 23:21:00,
2013-07-26 18:25:00,94.8,64.4,-100.00,SW,225,1.0,5.0,37,0.00,,,0.00,meteohub,2013-07-26 23:25:00,
2013-07-26 18:27:00,94.8,64.4,-100.00,ESE,113,0.0,3.0,37,0.00,,,0.00,meteohub,2013-07-26 23:27:00,
2013-07-26 18:33:00,94.6,65.8,-100.00,NNE,23,2.0,3.0,39,0.00,,,0.00,meteohub,2013-07-26 23:33:00,
2013-07-26 18:35:00,94.6,65.8,-100.00,NE,45,3.0,3.0,39,0.00,,,0.00,meteohub,2013-07-26 23:35:00,
2013-07-26 18:37:00,94.5,66.4,-100.00,SSE,158,0.0,3.0,40,0.00,,,0.00,meteohub,2013-07-26 23:37:00,
2013-07-26 18:41:00,94.1,66.7,-100.00,ESE,113,2.0,3.0,41,0.00,,,0.00,meteohub,2013-07-26 23:41:00,
2013-07-26 18:45:00,94.1,66.7,-100.00,SW,225,1.0,4.0,41,0.00,,,0.00,meteohub,2013-07-26 23:45:00,
2013-07-26 18:47:00,93.9,66.6,-100.00,SSW,203,2.0,4.0,41,0.00,,,0.00,meteohub,2013-07-26 23:47:00,
2013-07-26 18:53:00,93.6,67.1,-100.00,SSE,158,1.0,4.0,42,0.00,,,0.00,meteohub,2013-07-26 23:53:00,
2013-07-26 18:55:00,93.6,67.1,-100.00,South,180,0.0,2.0,42,0.00,,,0.00,meteohub,2013-07-26 23:55:00,
2013-07-26 18:59:00,93.4,66.9,-100.00,SSW,203,5.0,5.0,42,0.00,,,0.00,meteohub,2013-07-26 23:59:00,
2013-07-26 19:01:00,93.4,66.9,-100.00,SE,135,0.0,2.0,42,0.00,,,0.00,meteohub,2013-07-27 00:01:00,
2013-07-26 19:05:00,93.0,67.3,-100.00,SSW,203,3.0,5.0,43,0.00,,,0.00,meteohub,2013-07-27 00:05:00,
2013-07-26 19:09:00,93.0,67.3,-100.00,South,180,2.0,5.0,43,0.00,,,0.00,meteohub,2013-07-27 00:09:00,
2013-07-26 19:11:00,93.0,67.3,-100.00,ESE,113,0.0,5.0,43,0.00,,,0.00,meteohub,2013-07-27 00:11:00,
2013-07-26 19:15:00,92.8,67.1,-100.00,SW,225,5.0,5.0,43,0.00,,,0.00,meteohub,2013-07-27 00:15:00,
2013-07-26 19:17:00,92.8,67.1,-100.00,ENE,68,4.0,4.0,43,0.00,,,0.00,meteohub,2013-07-27 00:17:00,
2013-07-26 19:19:00,92.7,66.9,-100.00,SSW,203,1.0,3.0,43,0.00,,,0.00,meteohub,2013-07-27 00:19:00,
2013-07-26 19:23:00,92.5,67.5,-100.00,South,180,1.0,5.0,44,0.00,,,0.00,meteohub,2013-07-27 00:23:00,
2013-07-26 19:26:00,92.5,67.5,-100.00,SW,225,2.0,5.0,44,0.00,,,0.00,meteohub,2013-07-27 00:26:00,
2013-07-26 19:28:00,92.3,67.3,-100.00,SSW,203,0.0,5.0,44,0.00,,,0.00,meteohub,2013-07-27 00:28:00,
2013-07-26 19:30:00,92.3,67.3,-100.00,SSW,203,0.0,5.0,44,0.00,,,0.00,meteohub,2013-07-27 00:30:00,
2013-07-26 19:32:00,92.1,67.1,-100.00,NW,315,2.0,5.0,44,0.00,,,0.00,meteohub,2013-07-27 00:32:00,
2013-07-26 19:36:00,92.1,67.1,-100.00,SSW,203,5.0,5.0,44,0.00,,,0.00,meteohub,2013-07-27 00:36:00,
2013-07-26 19:38:00,92.1,67.1,-100.00,WNW,293,1.0,5.0,44,0.00,,,0.00,meteohub,2013-07-27 00:38:00,
2013-07-26 19:42:00,91.9,66.9,-100.00,SW,225,2.0,5.0,44,0.00,,,0.00,meteohub,2013-07-27 00:42:00,
2013-07-26 19:44:00,91.9,66.9,-100.00,ENE,68,0.0,5.0,44,0.00,,,0.00,meteohub,2013-07-27 00:44:00,
2013-07-26 19:46:00,91.8,66.7,-100.00,SSE,158,4.0,5.0,44,0.00,,,0.00,meteohub,2013-07-27 00:46:00,
2013-07-26 19:47:00,91.8,66.7,-100.00,SE,135,2.0,5.0,44,0.00,,,0.00,meteohub,2013-07-27 00:47:00,
2013-07-26 19:48:00,91.8,66.7,-100.00,SE,135,2.0,5.0,44,0.00,,,0.00,meteohub,2013-07-27 00:48:00,
2013-07-26 19:50:00,91.6,67.3,-100.00,SSW,203,4.0,5.0,45,0.00,,,0.00,meteohub,2013-07-27 00:50:00,
2013-07-26 19:52:00,91.6,67.3,-100.00,South,180,2.0,5.0,45,0.00,,,0.00,meteohub,2013-07-27 00:52:00,
2013-07-26 19:56:00,91.2,66.9,-100.00,SW,225,1.0,4.0,45,0.00,,,0.00,meteohub,2013-07-27 00:56:00,
2013-07-26 19:58:00,91.2,66.9,-100.00,SW,225,1.0,4.0,45,0.00,,,0.00,meteohub,2013-07-27 00:58:00,
2013-07-26 20:00:00,91.2,66.9,-100.00,ENE,68,1.0,4.0,45,0.00,,,0.00,meteohub,2013-07-27 01:00:00,
2013-07-26 20:02:00,91.2,66.9,-100.00,South,180,1.0,4.0,45,0.00,,,0.00,meteohub,2013-07-27 01:02:00,
2013-07-26 20:04:00,91.0,66.7,-100.00,ESE,113,1.0,4.0,45,0.00,,,0.00,meteohub,2013-07-27 01:04:00,
2013-07-26 20:08:00,91.0,66.7,-100.00,ESE,113,0.0,4.0,45,0.00,,,0.00,meteohub,2013-07-27 01:08:00,
2013-07-26 20:10:00,91.0,67.5,-100.00,SSW,203,2.0,4.0,46,0.00,,,0.00,meteohub,2013-07-27 01:10:00,
2013-07-26 20:14:00,90.7,67.1,-100.00,SSW,203,1.0,1.0,46,0.00,,,0.00,meteohub,2013-07-27 01:14:00,
2013-07-26 20:16:00,90.7,67.1,-100.00,SSW,203,2.0,2.0,46,0.00,,,0.00,meteohub,2013-07-27 01:16:00,
2013-07-26 20:17:00,90.5,66.9,-100.00,WSW,248,0.0,2.0,46,0.00,,,0.00,meteohub,2013-07-27 01:17:00,
2013-07-26 20:22:00,90.3,66.7,-100.00,SSW,203,2.0,2.0,46,0.00,,,0.00,meteohub,2013-07-27 01:22:00,
2013-07-26 20:24:00,90.3,67.3,-100.00,WSW,248,7.0,7.0,47,0.00,,,0.00,meteohub,2013-07-27 01:24:00,
2013-07-26 20:26:00,90.3,67.3,-100.00,South,180,0.0,2.0,47,0.00,,,0.00,meteohub,2013-07-27 01:26:00,
2013-07-26 20:28:00,90.1,67.1,-100.00,South,180,0.0,2.0,47,0.00,,,0.00,meteohub,2013-07-27 01:28:00,
2013-07-26 20:32:00,90.0,67.1,-100.00,SSW,203,0.0,7.0,47,0.00,,,0.00,meteohub,2013-07-27 01:32:00,
2013-07-26 20:34:00,90.0,67.1,-100.00,SSE,158,2.0,7.0,47,0.00,,,0.00,meteohub,2013-07-27 01:34:00,
2013-07-26 20:39:00,89.8,66.9,-100.00,SW,225,3.0,7.0,47,0.00,,,0.00,meteohub,2013-07-27 01:39:00,
2013-07-26 20:41:00,89.8,66.9,-100.00,SE,135,1.0,3.0,47,0.00,,,0.00,meteohub,2013-07-27 01:41:00,
2013-07-26 20:45:00,89.4,66.6,-100.00,SW,225,1.0,3.0,47,0.00,,,0.00,meteohub,2013-07-27 01:45:00,
2013-07-26 20:47:00,89.4,66.6,-100.00,SSE,158,0.0,5.0,47,0.00,,,0.00,meteohub,2013-07-27 01:47:00,
2013-07-26 20:49:00,89.4,66.6,-100.00,ESE,113,0.0,5.0,47,0.00,,,0.00,meteohub,2013-07-27 01:49:00,
2013-07-26 20:51:00,89.2,66.4,-100.00,SSW,203,4.0,5.0,47,0.00,,,0.00,meteohub,2013-07-27 01:51:00,
2013-07-26 20:53:00,89.2,66.4,-100.00,SSW,203,4.0,5.0,47,0.00,,,0.00,meteohub,2013-07-27 01:53:00,
2013-07-26 20:55:00,89.2,66.4,-100.00,SW,225,2.0,5.0,47,0.00,,,0.00,meteohub,2013-07-27 01:55:00,
2013-07-26 20:59:00,89.2,66.4,-100.00,ESE,113,1.0,5.0,47,0.00,,,0.00,meteohub,2013-07-27 01:59:00,
2013-07-26 21:01:00,89.1,66.2,-100.00,SSW,203,2.0,4.0,47,0.00,,,0.00,meteohub,2013-07-27 02:01:00,
2013-07-26 21:02:00,89.1,66.2,-100.00,ESE,113,1.0,4.0,47,0.00,,,0.00,meteohub,2013-07-27 02:02:00,
2013-07-26 21:07:00,88.9,66.0,-100.00,SSE,158,0.0,4.0,47,0.00,,,0.00,meteohub,2013-07-27 02:07:00,
2013-07-26 21:11:00,88.7,65.8,-100.00,SE,135,0.0,4.0,47,0.00,,,0.00,meteohub,2013-07-27 02:11:00,
2013-07-26 21:13:00,88.7,66.6,-100.00,NNE,23,0.0,4.0,48,0.00,,,0.00,meteohub,2013-07-27 02:13:00,
2013-07-26 21:17:00,88.5,66.4,-100.00,NNE,23,0.0,2.0,48,0.00,,,0.00,meteohub,2013-07-27 02:17:00,
2013-07-26 21:19:00,88.5,66.4,-100.00,East,90,0.0,2.0,48,0.00,,,0.00,meteohub,2013-07-27 02:19:00,
2013-07-26 21:23:00,88.3,66.2,-100.00,South,180,3.0,3.0,48,0.00,,,0.00,meteohub,2013-07-27 02:23:00,
2013-07-26 21:25:00,88.2,66.0,-100.00,SSW,203,0.0,2.0,48,0.00,,,0.00,meteohub,2013-07-27 02:25:00,
2013-07-26 21:29:00,88.2,66.0,-100.00,East,90,0.0,2.0,48,0.00,,,0.00,meteohub,2013-07-27 02:29:00,
2013-07-26 21:31:00,88.0,65.8,-100.00,East,90,0.0,3.0,48,0.00,,,0.00,meteohub,2013-07-27 02:31:00,
2013-07-26 21:33:00,88.0,65.8,-100.00,East,90,0.0,3.0,48,0.00,,,0.00,meteohub,2013-07-27 02:33:00,
2013-07-26 21:37:00,87.8,65.7,-100.00,SSW,203,2.0,3.0,48,0.00,,,0.00,meteohub,2013-07-27 02:37:00,
2013-07-26 21:39:00,87.6,65.5,-100.00,SSE,158,0.0,3.0,48,0.00,,,0.00,meteohub,2013-07-27 02:39:00,
2013-07-26 21:41:00,87.6,65.5,-100.00,West,270,0.0,2.0,48,0.00,,,0.00,meteohub,2013-07-27 02:41:00,
2013-07-26 21:43:00,87.6,65.5,-100.00,East,90,0.0,2.0,48,0.00,,,0.00,meteohub,2013-07-27 02:43:00,
2013-07-26 21:47:00,87.6,65.5,-100.00,SSW,203,0.0,2.0,48,0.00,,,0.00,meteohub,2013-07-27 02:47:00,
2013-07-26 21:49:00,87.4,65.3,-100.00,SE,135,0.0,2.0,48,0.00,,,0.00,meteohub,2013-07-27 02:49:00,
2013-07-26 21:51:00,87.4,65.3,-100.00,SE,135,0.0,2.0,48,0.00,,,0.00,meteohub,2013-07-27 02:51:00,
2013-07-26 21:53:00,87.4,65.3,-100.00,SSW,203,0.0,2.0,48,0.00,,,0.00,meteohub,2013-07-27 02:53:00,
2013-07-26 21:57:00,87.3,65.8,-100.00,SW,225,0.0,0.0,49,0.00,,,0.00,meteohub,2013-07-27 02:57:00,
2013-07-26 21:59:00,87.1,65.7,-100.00,SW,225,0.0,0.0,49,0.00,,,0.00,meteohub,2013-07-27 02:59:00,
2013-07-26 22:02:00,86.9,65.5,-100.00,East,90,0.0,0.0,49,0.00,,,0.00,meteohub,2013-07-27 03:02:00,
2013-07-26 22:04:00,86.9,65.5,-100.00,ENE,68,0.0,0.0,49,0.00,,,0.00,meteohub,2013-07-27 03:04:00,
2013-07-26 22:06:00,86.9,65.5,-100.00,ENE,68,0.0,0.0,49,0.00,,,0.00,meteohub,2013-07-27 03:06:00,
2013-07-26 22:08:00,86.7,65.3,-100.00,SW,225,0.0,0.0,49,0.00,,,0.00,meteohub,2013-07-27 03:08:00,
2013-07-26 22:10:00,86.7,65.3,-100.00,SW,225,0.0,0.0,49,0.00,,,0.00,meteohub,2013-07-27 03:10:00,
2013-07-26 22:14:00,86.5,65.1,-100.00,SW,225,0.0,0.0,49,0.00,,,0.00,meteohub,2013-07-27 03:14:00,
2013-07-26 22:16:00,86.5,65.7,-100.00,SW,225,0.0,0.0,50,0.00,,,0.00,meteohub,2013-07-27 03:16:00,
2013-07-26 22:17:00,86.5,65.7,-100.00,SW,225,0.0,0.0,50,0.00,,,0.00,meteohub,2013-07-27 03:17:00,
2013-07-26 22:20:00,86.4,65.5,-100.00,SW,225,0.0,0.0,50,0.00,,,0.00,meteohub,2013-07-27 03:20:00,
2013-07-26 22:22:00,86.2,65.3,-100.00,SSW,203,0.0,0.0,50,0.00,,,0.00,meteohub,2013-07-27 03:22:00,
2013-07-26 22:26:00,86.2,65.3,-100.00,West,270,0.0,0.0,50,0.00,,,0.00,meteohub,2013-07-27 03:26:00,
2013-07-26 22:28:00,86.0,65.1,-100.00,West,270,0.0,0.0,50,0.00,,,0.00,meteohub,2013-07-27 03:28:00,
2013-07-26 22:32:00,85.8,65.7,-100.00,West,270,0.0,0.0,51,0.00,,,0.00,meteohub,2013-07-27 03:32:00,
2013-07-26 22:37:00,85.8,65.7,-100.00,West,270,0.0,0.0,51,0.00,,,0.00,meteohub,2013-07-27 03:37:00,
2013-07-26 22:39:00,85.6,65.5,-100.00,North,0,0.0,0.0,51,0.00,,,0.00,meteohub,2013-07-27 03:39:00,
2013-07-26 22:41:00,85.6,65.5,-100.00,North,0,0.0,0.0,51,0.00,,,0.00,meteohub,2013-07-27 03:41:00,
2013-07-26 22:47:00,85.6,66.0,-100.00,South,180,0.0,0.0,52,0.00,,,0.00,meteohub,2013-07-27 03:47:00,
2013-07-26 22:49:00,85.6,66.0,-100.00,NE,45,0.0,0.0,52,0.00,,,0.00,meteohub,2013-07-27 03:49:00,
2013-07-26 22:53:00,85.6,66.0,-100.00,NE,45,0.0,1.0,52,0.00,,,0.00,meteohub,2013-07-27 03:53:00,
2013-07-26 22:55:00,85.3,65.7,-100.00,NNW,338,0.0,1.0,52,0.00,,,0.00,meteohub,2013-07-27 03:55:00,
2013-07-26 22:59:00,85.5,65.8,-100.00,NNW,338,0.0,1.0,52,0.00,,,0.00,meteohub,2013-07-27 03:59:00,
2013-07-26 23:01:00,85.3,65.7,-100.00,WNW,293,0.0,1.0,52,0.00,,,0.00,meteohub,2013-07-27 04:01:00,
2013-07-26 23:02:00,85.3,65.7,-100.00,WNW,293,0.0,1.0,52,0.00,,,0.00,meteohub,2013-07-27 04:02:00,
2013-07-26 23:03:00,85.3,65.7,-100.00,WNW,293,0.0,1.0,52,0.00,,,0.00,meteohub,2013-07-27 04:03:00,
2013-07-26 23:07:00,85.3,66.2,-100.00,WNW,293,0.0,0.0,53,0.00,,,0.00,meteohub,2013-07-27 04:07:00,
2013-07-26 23:13:00,85.3,66.2,-100.00,WNW,293,0.0,0.0,53,0.00,,,0.00,meteohub,2013-07-27 04:13:00,
2013-07-26 23:15:00,85.3,66.2,-100.00,NW,315,0.0,0.0,53,0.00,,,0.00,meteohub,2013-07-27 04:15:00,
2013-07-26 23:19:00,85.3,66.2,-100.00,NW,315,0.0,0.0,53,0.00,,,0.00,meteohub,2013-07-27 04:19:00,
2013-07-26 23:23:00,85.1,66.0,-100.00,WNW,293,0.0,0.0,53,0.00,,,0.00,meteohub,2013-07-27 04:23:00,
2013-07-26 23:25:00,85.1,66.0,-100.00,North,0,0.0,0.0,53,0.00,,,0.00,meteohub,2013-07-27 04:25:00,
2013-07-26 23:27:00,85.1,66.0,-100.00,WNW,293,0.0,0.0,53,0.00,,,0.00,meteohub,2013-07-27 04:27:00,
2013-07-26 23:29:00,84.9,65.8,-100.00,West,270,0.0,0.0,53,0.00,,,0.00,meteohub,2013-07-27 04:29:00,
2013-07-26 23:31:00,84.9,65.8,-100.00,West,270,0.0,0.0,53,0.00,,,0.00,meteohub,2013-07-27 04:31:00,
2013-07-26 23:32:00,84.9,65.8,-100.00,North,0,0.0,0.0,53,0.00,,,0.00,meteohub,2013-07-27 04:32:00,
2013-07-26 23:33:00,84.9,65.8,-100.00,North,0,0.0,0.0,53,0.00,,,0.00,meteohub,2013-07-27 04:33:00,
2013-07-26 23:37:00,84.9,65.8,-100.00,NE,45,0.0,0.0,53,0.00,,,0.00,meteohub,2013-07-27 04:37:00,
2013-07-26 23:39:00,84.7,66.2,-100.00,NE,45,0.0,0.0,54,0.00,,,0.00,meteohub,2013-07-27 04:39:00,
2013-07-26 23:41:00,84.7,66.2,-100.00,West,270,0.0,0.0,54,0.00,,,0.00,meteohub,2013-07-27 04:41:00,
2013-07-26 23:43:00,84.7,66.2,-100.00,West,270,0.0,0.0,54,0.00,,,0.00,meteohub,2013-07-27 04:43:00,
2013-07-26 23:47:00,84.7,66.2,-100.00,NW,315,0.0,0.0,54,0.00,,,0.00,meteohub,2013-07-27 04:47:00,
2013-07-26 23:51:00,84.6,66.0,-100.00,WNW,293,0.0,0.0,54,0.00,,,0.00,meteohub,2013-07-27 04:51:00,
2013-07-26 23:53:00,84.6,66.6,-100.00,WNW,293,0.0,0.0,55,0.00,,,0.00,meteohub,2013-07-27 04:53:00,
2013-07-26 23:59:00,84.4,66.4,-100.00,NW,315,0.0,0.0,55,0.00,,,0.00,meteohub,2013-07-27 04:59:00,